RH
85 84 86 82 77 74 79 85 81 78 78 78 81 83 82 82 85 85 79 77 76 75 76 75 75 78 77 76 77 80 82 82 83 81 77 75 72 71 71 72 72 69 67 68 74 76 72 68 66 73 78 71 73 88 95 96 99 101 100 99 93 84 86
83 80 82 83 81 79 82 85 80 78 79 80 85 85 82 83 85 86 83 79 79 79 78 78 78 80 81 79 77 79 83 83 83 82 81 79 75 73 73 71 70 68 66 66 74 79 76 78 77 78 80 70 65 80 93 95 96 98 99 99 98 89 86
82 75 74 81 85 82 82 85 82 81 82 83 84 79 78 82 84 85 84 83 84 82 81 84 83 83 85 82 77 81 84 82 81 82 83 81 76 74 75 72 69 71 70 67 75 81 80 87 87 80 81 81 79 84 90 94 92 91 95 98 101 94 87
71 72 75 80 81 81 82 86 85 81 83 84 80 75 76 77 79 83 83 86 86 80 82 86 83 82 84 82 78 81 82 80 82 82 79 79 76 72 73 73 72 74 75 74 80 85 84 88 86 80 82 86 86 83 82 89 91 88 91 96 99 96 88
40 57 73 75 71 73 79 85 86 84 86 83 77 77 77 69 70 76 75 75 74 68 69 70 68 70 79 84 79 77 79 77 80 80 75 77 77 71 73 76 75 75 75 77 83 88 86 85 82 82 87 88 84 78 72 78 85 82 85 93 98 99 93
14 25 43 56 58 55 62 75 83 83 80 75 74 76 72 62 62 63 55 54 57 53 44 36 33 44 68 87 83 77 80 76 78 80 75 77 78 72 75 77 75 74 74 78 86 86 83 84 83 79 83 90 88 80 72 69 73 76 79 89 97 101 97
11 10 15 28 33 31 41 56 61 60 60 68 74 68 56 51 53 48 37 38 42 35 23 11 13 33 61 85 87 80 80 78 79 81 78 79 77 73 76 77 75 75 74 80 87 85 81 80 76 72 80 90 86 77 70 62 65 74 77 84 92 93 94
10 10 9 13 14 16 29 40 43 41 41 52 59 49 40 42 44 35 28 31 26 17 9 2 16 42 59 76 87 85 80 81 82 80 79 80 77 77 82 80 75 73 74 80 84 83 80 74 72 79 87 88 81 73 67 59 60 68 74 82 88 85 88
8 10 10 10 9 10 16 27 39 40 33 34 40 39 36 37 36 27 25 26 16 7 3 1 13 30 43 65 86 89 85 84 85 82 80 81 81 84 85 79 73 71 75 82 82 79 78 76 81 91 89 84 84 77 67 61 59 62 69 79 85 81 83
8 10 10 9 9 8 7 12 23 29 27 26 31 35 32 31 30 25 26 24 12 4 1 3 8 10 29 61 78 83 83 79 83 85 81 81 84 85 83 76 72 73 77 80 79 79 80 81 84 87 84 86 90 82 72 67 61 62 68 76 84 82 82
7 9 10 10 10 9 10 12 12 15 22 23 25 30 29 32 33 25 26 24 14 7 -0 2 6 6 32 64 73 81 79 72 84 89 81 82 82 80 78 75 73 75 78 80 80 80 82 82 82 81 80 83 85 81 78 74 65 64 69 75 88 89 83
5 8 9 10 10 8 13 23 20 11 15 17 19 24 29 40 42 33 32 27 16 11 1 2 6 9 36 62 72 85 79 68 82 85 75 79 79 75 75 76 77 77 79 81 80 79 80 81 81 79 77 78 78 75 78 80 70 67 72 77 90 93 85
3 6 9 10 11 8 11 23 23 11 9 12 14 18 25 37 41 37 37 30 20 14 4 3 3 9 39 61 64 72 68 63 73 71 64 69 72 72 74 76 77 78 81 83 80 78 77 79 81 81 80 79 76 70 73 83 78 73 77 80 88 92 84
2 4 7 9 11 10 9 13 14 8 7 9 12 15 21 27 30 31 33 28 22 15 6 4 2 8 39 63 58 47 45 56 65 57 51 57 67 71 71 77 79 79 85 86 82 78 75 77 80 82 83 81 77 72 73 83 84 80 79 78 86 92 86
3 2 4 7 9 10 10 9 8 7 7 8 9 12 18 22 22 25 28 26 22 16 8 5 2 6 26 52 59 42 32 49 59 52 46 48 60 69 70 77 80 79 84 85 83 80 77 80 83 82 83 80 77 76 73 80 88 85 81 81 89 93 88
2 2 2 4 6 8 10 10 9 8 7 8 10 11 14 16 18 24 28 27 23 16 11 7 3 6 15 35 58 54 44 53 56 53 49 39 47 65 72 78 81 78 82 84 83 82 80 82 83 81 81 78 75 73 71 79 88 87 85 88 92 92 92
2 2 2 3 4 5 7 8 9 9 7 9 12 12 11 12 18 27 32 36 36 24 13 8 3 6 11 21 43 54 57 65 63 54 44 27 33 58 69 76 81 79 82 84 82 85 85 82 82 82 82 78 73 70 71 80 88 88 88 91 92 92 97
2 2 2 2 3 3 4 6 7 8 7 9 12 14 15 16 19 30 38 43 45 33 16 8 4 6 10 13 27 40 45 56 65 59 44 29 27 43 61 75 82 82 83 84 84 85 86 84 84 84 82 78 73 69 71 81 90 89 87 89 92 94 96
3 3 2 2 2 2 2 3 5 7 7 8 11 13 19 22 19 29 45 46 39 30 18 11 7 5 7 9 21 36 39 45 56 48 38 36 27 29 51 70 79 85 84 84 88 87 83 85 88 84 81 81 77 69 70 81 89 87 85 89 95 96 95
12 9 6 4 3 3 3 3 3 6 7 7 9 11 21 30 23 20 34 38 30 23 16 13 9 2 5 10 18 35 43 51 60 46 34 39 27 22 46 61 67 84 87 80 83 80 73 77 85 84 82 83 78 70 71 82 89 87 86 91 97 97 95
30 26 22 17 11 5 5 6 8 11 12 8 7 11 22 34 31 21 21 23 20 17 12 12 10 4 6 8 12 30 45 56 69 63 54 55 39 27 44 54 53 68 76 69 69 69 65 67 77 83 83 82 79 72 73 82 89 89 88 91 98 99 95
46 43 42 39 31 21 16 15 16 17 17 13 8 8 14 23 26 23 22 21 17 14 13 11 9 5 5 6 11 29 44 49 57 58 55 63 56 39 44 49 44 48 57 58 59 66 71 70 70 77 77 77 79 77 76 84 91 92 91 92 96 100 96
56 52 51 50 47 44 39 34 30 24 19 18 13 8 8 11 14 14 20 28 24 16 13 10 8 6 4 5 8 19 35 44 48 45 43 50 48 39 45 52 47 45 50 54 59 67 74 74 69 68 68 67 69 72 79 90 96 94 95 96 97 99 96
64 60 58 55 53 53 52 50 49 42 33 26 18 13 9 8 11 11 18 34 36 23 14 10 9 7 3 4 4 8 27 43 43 39 40 44 41 37 46 54 54 58 59 58 67 73 72 71 70 66 66 66 62 63 74 90 95 93 94 97 97 95 92
72 68 65 62 58 57 55 54 54 52 50 41 28 24 20 13 14 14 17 29 35 32 24 13 9 8 3 4 3 3 16 34 40 36 31 33 34 32 38 50 61 71 67 58 68 78 74 70 68 67 70 70 64 59 68 86 95 94 97 99 97 96 93
74 72 67 65 63 61 58 57 55 54 56 52 43 39 32 23 20 18 17 19 24 36 36 18 8 9 4 2 4 3 9 23 37 37 23 15 16 13 22 49 73 80 72 64 71 80 79 77 74 74 77 76 71 62 63 82 97 97 98 100 98 97 96
68 67 65 64 63 62 60 58 57 55 54 55 54 49 41 35 29 25 23 19 19 33 37 20 11 11 5 2 4 2 6 15 23 26 18 9 7 3 7 34 65 81 82 75 68 69 77 83 82 81 80 79 80 72 65 79 97 98 98 99 99 100 99
65 64 64 63 61 61 62 60 59 60 57 55 56 54 52 49 39 28 24 21 20 28 30 22 16 13 5 4 5 1 5 12 14 15 13 7 5 4 4 20 50 75 82 74 63 62 71 80 83 82 78 78 83 76 66 76 92 95 95 96 96 98 98
62 63 64 65 65 66 66 63 61 62 61 60 59 60 63 62 53 37 26 22 22 26 28 24 19 15 7 4 5 3 3 8 10 10 9 6 5 4 5 21 52 78 82 71 63 62 67 75 80 80 77 77 80 77 71 76 85 88 91 92 92 93 94
48 49 51 53 56 61 65 67 65 62 61 61 62 66 67 66 63 51 34 25 24 27 30 27 21 18 11 5 6 3 2 10 16 11 7 7 6 6 5 12 41 74 79 67 61 63 67 76 78 75 74 74 74 75 77 79 82 84 87 90 89 88 89
46 46 45 44 45 46 51 60 66 67 64 60 61 69 72 70 71 63 45 32 28 30 32 29 25 20 12 10 11 3 3 18 24 15 10 8 4 8 10 6 19 47 57 54 59 64 66 75 77 71 72 71 69 75 80 81 84 87 87 89 88 88 90
51 51 51 50 49 47 47 51 59 67 71 67 64 68 72 75 78 72 58 43 34 34 35 29 26 23 16 16 14 3 4 21 28 24 22 17 8 8 12 10 10 20 28 38 55 64 64 73 78 73 71 69 69 78 83 77 80 88 90 91 93 92 91
58 58 58 57 56 55 54 53 55 62 71 75 73 70 71 76 77 74 71 61 44 38 39 33 27 24 22 20 12 3 4 11 24 34 28 17 13 10 16 26 21 12 14 24 40 56 64 68 74 76 76 72 71 79 81 75 77 87 91 92 94 93 91
58 58 60 61 62 62 60 59 59 60 65 71 75 75 72 74 78 80 83 73 56 47 45 41 33 27 27 24 13 7 5 2 23 49 37 14 13 22 40 56 42 16 12 15 19 38 56 62 68 75 77 71 67 72 78 80 84 90 92 92 92 89 89
49 56 63 61 61 63 65 65 64 64 66 68 70 72 74 80 89 95 90 74 62 60 55 47 42 36 33 30 17 7 4 -0 17 45 39 16 15 33 55 65 43 17 16 17 11 19 36 52 64 68 67 63 62 68 77 83 87 90 91 90 89 88 86
64 75 78 70 65 67 70 70 70 74 82 83 77 75 82 92 98 101 97 81 68 68 63 55 51 45 38 35 24 9 4 2 7 20 21 12 15 32 46 46 30 17 16 15 11 9 18 39 57 60 59 59 62 71 79 82 85 89 89 89 90 90 88
83 85 85 81 81 83 82 82 82 85 90 93 90 87 91 96 95 96 101 93 77 71 70 64 60 52 42 39 31 14 5 4 5 8 10 10 17 29 31 24 19 19 15 11 11 8 9 28 49 56 56 57 63 75 81 82 87 92 89 87 91 92 91
Wind_Speed
5 5 5 6 5 5 5 5 5 5 5 6 6 6 7 8 8 8 8 9 9 10 10 10 11 11 11 13 13 12 12 11 11 12 14 15 16 16 16 15 14 14 14 15 15 16 19 21 23 21 22 24 21 17 16 17 18 19 20 23 26 28 26
4 5 5 5 5 6 5 5 4 4 5 5 6 7 8 7 7 7 7 8 9 9 9 9 10 10 11 12 12 11 10 10 10 11 12 14 15 16 17 16 15 15 15 15 15 16 16 17 20 22 24 25 24 21 18 18 19 19 20 22 24 28 28
4 5 5 4 5 6 5 4 4 3 4 5 7 8 7 6 6 7 7 8 9 9 9 9 10 10 11 11 10 10 10 10 9 9 11 12 14 15 16 16 15 16 17 17 17 17 15 15 18 23 25 25 25 23 19 17 18 19 21 22 22 27 28
3 4 4 4 4 5 4 3 4 4 4 5 7 7 5 5 6 6 7 7 8 10 10 10 11 11 10 9 9 10 10 9 9 9 10 12 13 15 16 14 14 15 17 18 17 15 14 15 19 23 24 24 23 23 21 16 15 17 19 21 22 26 28
3 3 4 4 3 3 3 4 4 4 5 6 6 5 5 6 6 6 7 8 9 11 12 12 12 11 9 8 8 9 9 9 9 9 10 12 13 15 15 14 13 14 16 16 14 13 13 15 20 23 23 23 23 25 24 17 14 16 17 19 23 25 27
3 3 3 3 4 4 3 4 4 4 5 5 4 4 5 6 7 8 9 10 11 13 14 14 12 9 7 6 7 9 9 8 8 9 10 12 13 14 15 14 13 13 15 15 13 13 13 15 18 22 23 21 22 24 24 19 16 16 17 18 21 23 25
3 3 3 3 4 4 4 4 4 4 4 4 4 4 5 6 7 9 10 11 12 14 14 13 11 8 6 5 7 8 8 7 7 8 10 11 12 13 14 14 12 13 14 13 13 13 14 16 18 22 23 22 21 22 22 20 17 16 19 18 19 23 25
4 4 4 3 4 4 4 4 4 4 4 3 4 5 5 6 8 9 10 11 12 13 13 12 9 7 7 5 6 7 7 7 7 8 10 11 12 13 14 14 12 12 13 12 13 13 14 17 19 19 20 22 23 22 22 22 18 17 20 19 18 24 26
4 4 4 4 4 3 3 4 4 5 4 4 4 5 5 6 7 8 10 10 12 12 12 11 9 7 7 6 7 7 7 7 7 8 9 10 12 13 13 13 11 11 13 11 12 13 13 16 17 16 18 20 21 22 23 22 20 18 21 21 20 23 26
5 5 5 4 4 4 4 3 4 5 5 5 5 5 6 6 7 8 9 10 11 11 11 10 9 8 8 7 7 7 7 8 7 7 9 10 12 12 11 11 10 10 12 11 12 13 14 15 15 16 17 17 18 21 22 21 21 20 20 21 20 22 25
5 6 5 5 5 5 4 4 5 5 6 7 7 7 7 7 7 8 8 10 10 11 11 10 9 9 8 7 7 7 8 9 8 8 10 11 11 11 10 10 9 9 10 11 12 13 14 15 15 16 17 16 17 19 20 20 20 18 19 20 19 20 24
6 7 6 5 5 5 5 6 6 7 7 8 8 8 7 7 8 8 8 10 10 11 11 10 10 9 7 6 6 6 8 9 8 8 10 10 10 11 10 9 8 9 9 10 12 12 14 15 15 16 17 17 18 19 19 19 18 17 18 19 18 18 21
7 7 7 6 6 5 6 6 8 8 8 8 8 8 8 8 8 8 8 9 10 11 11 10 9 8 7 6 6 6 7 8 8 8 9 9 9 10 9 8 7 8 8 9 11 12 13 14 15 16 17 17 18 19 19 18 17 17 17 18 17 16 19
7 7 7 7 6 6 6 7 8 8 8 8 8 8 9 9 9 9 9 9 9 10 10 10 9 8 5 5 6 7 7 7 7 9 10 9 9 10 9 7 7 7 7 9 11 11 12 13 14 16 16 17 17 18 19 17 16 16 17 17 17 16 17
8 8 8 8 8 8 7 7 7 8 8 8 8 8 9 9 10 10 10 10 10 9 9 9 9 8 5 4 5 7 8 8 8 10 10 9 8 9 8 6 7 7 7 8 9 11 12 13 14 15 16 16 17 18 18 17 15 15 16 16 16 16 17
8 8 9 9 9 9 9 8 8 8 8 8 9 9 9 10 11 11 11 11 11 10 9 9 9 8 6 4 4 6 7 8 9 10 10 10 8 8 7 6 7 7 6 7 9 10 11 12 14 15 15 16 16 17 17 16 13 12 14 15 15 16 18
9 9 10 10 10 10 10 9 8 9 9 9 10 10 10 10 11 11 11 11 11 11 10 9 9 8 6 5 3 4 5 6 8 9 10 11 9 8 7 6 6 7 7 7 9 9 10 11 13 14 15 15 16 17 16 15 12 10 11 13 13 14 17
9 10 10 10 11 10 10 10 9 9 10 10 11 11 11 11 11 11 11 11 11 12 11 10 9 8 7 6 5 4 4 5 6 8 10 12 10 8 7 5 5 7 7 7 8 9 9 11 12 14 15 15 15 16 16 14 12 10 10 12 11 12 14
9 10 10 10 11 11 11 11 11 10 11 11 12 12 12 12 12 10 10 11 11 12 12 10 9 8 7 7 6 5 5 6 6 8 9 11 10 8 6 5 5 6 7 7 7 8 9 10 11 13 15 15 15 15 15 14 12 11 10 11 11 11 12
10 10 10 10 11 11 11 12 12 11 12 12 13 13 12 13 13 12 11 12 13 12 12 10 9 9 7 7 6 5 5 6 7 8 10 10 10 9 6 5 4 5 6 6 6 8 9 9 10 12 14 15 15 15 15 14 12 10 10 10 10 11 12
11 10 10 10 11 11 11 12 12 12 13 13 13 13 13 13 14 13 13 13 13 13 12 11 10 8 7 7 6 5 4 5 6 8 9 10 10 9 6 5 4 4 4 4 5 7 9 10 10 12 14 15 15 15 15 14 13 10 10 9 9 10 11
12 12 11 11 11 11 11 11 12 13 13 13 13 13 14 14 14 14 14 14 14 13 12 11 10 8 7 7 6 5 4 4 5 6 7 8 9 8 6 5 4 3 3 3 5 7 9 9 10 12 13 15 16 15 14 13 12 10 9 9 9 9 10
13 13 13 13 13 12 13 13 13 14 14 14 14 14 14 15 15 15 14 14 14 14 13 12 11 9 8 7 6 5 4 4 5 6 7 7 8 7 5 5 4 4 4 5 6 8 8 7 9 11 13 15 17 18 14 10 10 10 9 9 10 9 11
14 14 15 15 14 14 15 15 15 15 15 15 15 15 15 15 15 15 14 14 15 15 14 13 11 9 8 7 7 6 5 5 5 6 7 7 8 6 4 4 4 4 6 5 6 7 7 6 8 10 12 13 17 20 17 11 9 11 11 10 10 10 12
15 16 16 17 17 16 17 17 17 16 16 15 15 15 16 15 15 16 15 14 15 15 15 13 11 9 8 8 8 7 6 5 5 6 7 7 7 6 4 3 3 4 4 4 4 5 5 5 6 8 10 12 15 18 18 14 11 11 11 10 10 10 13
16 17 17 17 17 18 18 19 19 18 17 17 17 17 17 15 15 15 15 15 15 14 15 13 10 9 9 8 8 8 7 6 5 6 7 6 6 5 3 2 2 3 3 3 3 3 3 4 5 8 11 12 13 16 18 15 13 12 12 12 12 12 13
14 15 16 16 17 18 19 19 20 20 20 19 18 18 18 17 16 15 15 16 15 15 15 13 10 10 9 8 8 8 8 7 6 6 7 6 5 4 2 1 1 2 3 3 1 2 2 3 4 7 9 9 9 12 16 16 12 10 11 13 13 13 13
12 13 14 16 17 17 18 20 21 21 22 22 20 19 19 18 18 18 16 15 16 16 16 13 11 10 9 9 9 8 8 8 6 6 7 5 4 4 1 1 2 2 1 1 1 2 2 3 3 4 6 6 6 8 12 15 12 8 9 11 11 11 11
12 14 15 16 18 18 19 20 21 22 24 24 23 22 20 19 19 20 18 16 16 17 16 13 11 11 10 9 9 8 8 8 7 6 7 5 3 3 2 1 2 1 0 1 2 3 3 4 5 3 4 6 7 6 8 13 13 9 9 10 10 10 10
13 14 15 16 18 19 20 20 21 22 24 25 24 23 21 20 21 20 20 19 16 16 16 13 11 11 10 9 10 9 8 8 7 7 6 4 3 3 2 2 3 2 2 3 3 4 5 5 5 3 3 5 6 6 7 11 12 10 9 8 8 9 9
13 14 15 16 17 18 20 21 22 23 24 26 26 23 21 22 24 22 21 21 17 16 16 14 11 11 10 10 10 10 8 8 8 7 6 5 4 4 3 3 4 4 4 5 5 5 6 6 4 2 2 3 4 6 6 8 8 7 7 7 7 8 8
15 15 16 17 17 18 19 21 22 23 24 26 27 25 22 24 25 22 22 23 19 16 16 14 12 11 10 11 11 11 9 9 9 8 7 6 5 5 3 3 3 4 5 5 5 6 6 6 5 2 2 3 3 4 5 5 3 3 5 6 7 8 8
18 18 18 18 19 19 20 21 22 23 23 24 26 25 25 26 26 23 24 25 21 17 16 14 12 12 11 11 12 12 10 10 10 9 8 7 7 5 3 2 3 3 4 5 7 7 7 7 6 3 2 2 2 2 3 4 4 4 5 5 7 7 7
21 21 20 20 20 20 21 22 23 23 23 23 23 22 23 26 25 22 23 24 22 19 18 15 12 12 12 12 12 12 11 10 10 10 9 9 8 6 4 4 4 3 3 4 6 7 8 8 6 4 3 3 3 4 5 4 5 4 5 4 6 6 6
22 22 21 21 22 21 21 22 24 24 24 23 23 22 21 20 18 17 19 23 22 21 20 17 14 13 13 13 13 12 12 11 11 11 11 10 9 8 7 8 7 4 3 2 3 6 9 9 8 6 5 4 4 5 7 5 3 2 4 4 5 6 6
18 17 18 19 21 20 20 21 22 22 20 19 21 21 18 15 13 13 16 20 23 23 21 20 18 15 14 14 13 12 12 11 11 12 12 12 11 9 10 10 8 4 4 3 2 4 8 10 10 8 6 5 5 7 8 6 2 2 3 4 5 5 6
14 15 16 17 17 16 16 17 17 17 15 15 16 17 15 13 13 14 14 17 21 23 23 23 21 16 14 15 14 13 12 12 12 12 12 12 11 11 11 10 7 5 4 3 2 3 7 10 11 9 7 7 7 8 7 4 2 2 4 4 4 5 5
Wind_Direction
270 275 286 296 298 295 300 309 316 322 321 319 320 320 320 324 329 337 342 341 339 337 335 335 334 335 339 341 343 347 348 347 348 350 349 350 351 348 347 347 344 343 338 334 330 327 322 319 323 327 331 340 348 348 346 347 346 347 348 348 353 354 353
278 281 289 296 300 306 311 311 312 318 313 313 315 314 322 331 333 339 340 337 335 332 332 331 329 330 333 338 341 343 348 349 347 348 347 350 350 347 346 347 345 343 343 341 336 334 328 316 316 322 330 338 345 348 349 349 346 348 351 349 350 354 355
282 288 297 300 303 310 311 303 303 307 304 308 311 317 333 338 334 340 339 334 333 331 333 332 328 328 329 334 339 340 345 347 345 347 347 348 349 348 348 347 346 345 345 343 340 340 334 321 318 324 333 337 338 340 341 342 348 350 352 352 351 354 356
272 286 299 302 301 309 308 288 288 299 303 308 316 328 343 337 332 339 338 335 333 332 337 335 328 327 328 333 339 340 342 343 343 346 348 347 348 350 349 347 346 345 345 342 338 339 334 327 328 331 336 338 334 335 336 336 347 352 351 354 356 358 358
271 273 283 291 290 290 287 281 294 308 309 311 322 334 334 330 336 336 334 336 334 335 340 337 330 326 328 336 338 338 342 341 341 346 348 345 348 351 348 345 344 344 344 341 335 335 335 334 338 340 341 342 338 339 345 345 348 353 354 356 360 1 360
290 279 271 281 280 272 268 273 289 297 301 309 320 326 320 326 336 333 334 340 340 341 342 341 339 335 337 340 333 337 343 339 339 344 344 343 345 348 346 343 342 344 345 341 336 337 339 338 344 348 347 345 339 337 344 349 348 352 357 0 2 1 1
295 301 295 282 276 282 279 272 279 284 293 307 304 307 316 330 337 336 343 347 345 346 345 345 350 349 348 343 328 335 340 335 339 342 338 340 342 342 343 342 341 345 345 343 341 341 342 343 348 350 347 345 342 339 342 347 350 355 360 3 2 1 3
288 295 297 289 280 281 276 273 282 288 293 291 286 302 325 339 340 342 351 352 349 350 348 349 356 352 351 349 332 335 338 332 334 338 336 337 338 337 339 341 343 347 347 346 348 347 347 348 350 350 347 345 345 345 345 347 352 358 0 2 1 3 6
284 286 284 284 282 277 270 268 274 282 291 293 297 310 326 338 341 346 354 354 352 353 351 353 358 352 355 354 337 334 334 330 330 334 334 333 333 335 338 342 347 349 348 350 356 358 357 355 354 351 349 348 346 345 345 345 350 357 359 2 1 2 9
280 283 280 278 278 279 278 275 276 284 294 298 300 304 316 332 338 344 352 351 351 353 352 356 356 356 1 356 342 338 334 335 337 330 328 330 333 337 340 344 351 351 349 355 4 4 2 1 1 358 354 354 349 346 346 342 346 354 356 2 3 2 11
270 276 277 276 276 280 286 292 296 296 295 296 296 298 310 323 328 337 345 345 348 350 354 358 356 358 2 352 345 341 336 342 342 329 328 331 335 341 343 345 355 355 351 359 5 4 4 4 5 2 359 359 356 352 349 341 343 354 356 1 7 5 11
262 268 272 274 275 278 281 283 290 292 288 289 291 295 303 307 312 324 332 336 342 347 353 358 357 358 359 349 348 340 336 346 343 330 333 336 337 342 345 347 356 356 353 -0 3 3 4 4 3 3 0 3 2 357 354 346 343 351 356 2 7 6 11
257 263 268 273 276 278 276 271 278 287 287 286 288 291 294 294 298 309 317 325 335 341 349 355 356 358 355 344 347 342 340 350 347 337 341 343 341 343 347 351 354 355 355 359 1 2 2 360 0 3 2 4 6 360 356 352 345 347 356 5 8 6 11
255 261 265 272 276 278 279 272 275 284 287 285 287 288 289 289 292 299 307 315 325 334 342 349 352 357 351 332 338 349 357 1 354 351 356 353 346 346 350 356 351 350 355 356 358 359 359 358 358 1 2 3 6 4 358 354 347 346 356 7 14 14 12
256 260 263 270 275 276 279 278 279 286 289 289 289 288 285 286 289 294 301 307 316 327 334 339 344 349 347 327 332 348 2 9 0 360 5 1 352 349 352 359 354 351 354 353 355 354 355 359 358 0 4 2 4 6 359 354 350 348 354 6 17 20 17
258 260 263 267 271 274 276 280 285 289 292 292 291 289 285 284 288 291 296 302 310 319 324 330 338 343 341 332 330 341 353 3 0 1 5 3 360 354 354 1 356 355 357 352 353 352 352 359 359 0 6 4 3 6 359 353 356 357 359 8 17 19 20
259 261 264 267 269 272 275 279 285 288 290 289 287 288 288 287 287 288 293 299 306 312 318 328 334 334 334 332 331 335 341 349 351 354 1 6 8 -0 354 -0 358 357 359 353 353 352 351 359 1 2 7 5 3 6 358 353 2 9 7 13 20 21 20
260 263 266 269 270 272 274 277 282 285 288 288 285 286 287 288 288 288 292 297 298 303 313 325 329 325 326 328 329 333 340 345 345 345 354 3 8 3 355 357 359 358 -0 358 356 353 353 360 1 3 8 7 6 5 357 352 1 11 17 20 23 25 22
263 266 270 273 273 274 277 280 284 287 288 287 285 286 285 285 289 287 284 287 291 297 307 316 318 316 320 323 321 326 337 344 342 340 349 358 2 5 -0 351 355 359 1 2 359 353 355 360 1 5 9 9 8 5 357 355 1 10 20 22 19 22 26
266 269 274 278 277 278 280 282 287 289 288 287 285 285 283 282 287 287 278 279 287 293 301 305 307 314 321 316 308 312 325 332 332 336 345 352 358 6 4 352 356 354 350 1 6 1 4 7 7 9 10 10 11 6 359 357 1 10 18 19 18 22 27
266 270 276 280 282 284 286 287 292 292 291 290 285 282 281 278 282 287 284 283 286 290 295 298 299 309 313 305 301 304 312 316 319 327 334 340 350 2 1 356 3 344 332 1 16 14 17 21 18 14 12 13 13 8 3 0 2 11 20 21 24 24 27
270 273 276 281 285 288 290 292 295 297 296 295 289 284 281 278 279 281 282 285 286 287 291 291 292 298 299 296 294 290 293 301 310 321 326 328 339 350 350 356 11 -0 351 9 18 23 29 31 29 23 17 16 16 13 10 7 7 16 27 33 34 32 32
276 278 278 281 284 288 291 293 295 298 298 297 293 289 284 281 280 278 277 279 282 285 287 287 287 289 289 289 285 276 278 290 302 316 324 327 336 344 345 350 4 18 18 14 22 33 39 41 37 28 20 18 18 17 16 16 21 30 40 46 42 39 41
279 281 282 284 285 286 289 291 294 296 297 297 295 289 285 282 279 277 272 270 274 281 285 285 283 280 280 283 282 272 267 275 289 308 320 326 335 341 340 345 2 14 10 13 30 35 38 49 44 29 23 24 22 19 20 30 43 45 48 49 47 50 51
280 281 282 284 286 286 286 287 289 292 294 296 294 290 288 286 282 279 275 268 269 274 279 282 279 273 272 273 276 272 261 260 279 301 312 320 330 334 332 352 19 12 357 15 43 30 20 42 47 32 25 27 26 22 26 42 57 51 50 51 49 56 59
282 283 284 285 285 285 285 284 286 288 289 291 290 290 291 289 282 280 278 274 271 268 271 278 278 271 268 264 267 269 260 253 265 286 302 314 325 330 335 13 31 14 357 15 52 47 21 18 23 29 28 22 20 20 25 43 59 55 56 65 62 60 63
292 291 290 290 288 285 285 284 284 284 283 284 286 287 288 288 283 278 276 276 272 264 266 274 275 268 264 258 259 263 259 256 259 273 291 304 314 321 331 90 80 47 6 356 59 121 81 41 18 29 34 25 19 22 27 38 52 55 60 70 68 61 61
303 298 293 289 285 282 282 282 281 281 279 279 281 281 283 285 284 279 274 272 270 265 266 272 271 263 258 253 254 257 257 256 258 271 284 291 299 305 307 144 130 104 36 336 180 158 127 90 61 39 39 36 28 24 29 37 48 62 67 70 70 66 66
314 310 305 299 294 291 288 281 278 279 278 276 276 276 277 280 281 279 275 270 267 265 267 271 269 260 253 249 249 248 251 254 255 267 278 282 278 278 271 180 153 119 65 252 178 164 151 106 79 51 35 40 36 15 13 27 41 60 70 68 71 69 67
324 321 320 315 309 307 302 292 283 279 276 275 274 274 273 273 273 274 271 268 266 265 266 269 268 258 248 246 246 241 241 247 251 259 269 270 255 253 260 216 177 164 202 214 192 177 155 113 86 67 46 40 39 30 13 12 24 46 62 63 69 70 64
322 319 318 316 313 311 308 303 296 286 277 273 271 268 265 266 268 269 268 267 267 267 266 267 264 254 246 246 246 238 232 234 242 251 257 254 240 234 254 242 194 189 206 202 193 188 161 119 94 85 74 52 40 48 42 18 14 33 47 54 74 78 70
308 306 306 306 305 304 302 301 300 295 286 278 273 269 266 266 268 269 268 266 264 264 265 264 259 249 245 248 244 233 226 226 232 239 239 234 230 224 233 248 222 206 209 206 200 196 175 139 121 120 90 68 48 52 53 33 30 64 52 54 80 83 74
304 302 301 299 298 297 297 296 297 297 294 287 282 278 274 271 271 270 267 266 264 262 263 262 258 249 245 247 240 229 225 225 224 227 227 221 219 218 215 226 232 215 204 209 207 200 193 173 146 127 97 99 99 92 69 26 34 94 99 82 83 81 75
304 302 301 300 298 297 297 297 298 299 298 294 290 285 279 277 274 267 262 262 260 258 259 259 256 251 246 242 237 229 225 222 216 216 222 220 212 202 187 198 225 223 190 201 207 201 201 193 167 150 158 161 149 118 98 54 22 68 102 97 84 79 72
307 307 305 303 301 300 301 301 302 304 303 301 298 294 287 280 272 261 259 262 257 252 254 256 253 250 245 239 236 229 222 218 213 211 214 216 207 189 183 201 217 215 181 187 209 202 199 195 185 181 176 157 135 104 93 74 30 61 103 105 98 92 86
317 316 311 308 306 304 303 303 304 306 304 302 304 303 293 277 264 255 258 264 259 251 251 252 252 251 246 239 233 228 222 219 218 215 214 211 203 191 195 208 212 198 184 188 196 193 191 191 190 186 173 157 136 107 93 77 56 106 121 119 114 108 100
328 326 320 317 316 311 307 306 305 304 300 296 300 302 293 278 268 259 257 263 263 257 252 250 251 252 247 239 232 227 224 220 217 217 213 207 200 197 204 210 202 184 180 178 178 183 181 183 185 178 167 156 127 100 90 75 64 109 118 115 113 113 111